GFSCGP_925_rhum_081.txt.gz
RH
16 21 19 17 18 17 18 16 16 13 11 13 14 12 10 10 9 10 12 13 18 22 24 34 43 48 52 56 62 75 96 98 99 99 100 100 100 100 93 83 81 81 77 69
17 28 16 14 15 19 20 20 18 15 12 15 14 13 10 9 8 8 10 11 15 18 23 34 45 50 56 59 64 73 89 100 99 99 100 100 96 99 88 79 74 74 64 51
24 22 20 18 19 22 23 24 21 20 15 14 16 17 14 11 10 9 9 11 11 15 21 34 44 51 58 60 65 75 96 99 97 96 100 100 100 100 90 76 62 63 51 52
29 23 24 26 24 21 31 20 19 19 20 24 15 22 14 10 9 8 12 12 13 13 18 28 43 51 54 58 64 79 93 98 99 94 100 99 96 92 88 83 77 66 58 60
46 28 27 25 24 21 27 19 18 18 22 24 20 22 17 13 12 11 11 11 11 14 17 26 38 47 51 56 63 79 91 92 95 95 98 98 92 87 91 85 74 69 67 64
31 29 27 26 19 20 21 20 21 20 22 32 23 22 20 14 13 12 11 10 11 14 17 24 33 43 46 52 61 73 83 89 93 94 95 91 90 98 98 89 83 79 66 62
48 31 29 27 25 21 23 24 34 37 37 38 20 23 21 14 12 12 13 12 10 13 19 23 31 38 43 50 62 69 75 78 90 92 90 86 88 88 98 86 83 81 78 75
66 59 26 28 28 28 26 26 32 43 44 35 20 26 19 13 12 11 12 12 12 15 18 20 27 35 41 48 57 62 69 73 85 92 88 83 85 88 86 85 81 82 78 73
56 42 25 26 26 30 36 33 22 42 36 39 31 22 18 15 14 13 14 14 13 13 15 20 24 34 39 46 52 58 60 63 73 85 88 88 84 83 84 82 79 77 76 71
32 46 22 22 25 31 32 28 42 38 54 51 32 26 25 19 17 14 16 16 16 14 16 20 23 32 37 43 50 56 56 54 60 71 84 82 82 83 81 86 82 75 71 67
27 34 54 18 25 31 34 34 44 41 37 48 50 35 19 18 17 16 16 16 16 18 20 20 24 28 35 41 48 56 59 50 52 60 67 71 77 78 78 79 84 81 77 75
28 36 39 31 18 19 23 27 31 51 50 39 39 42 17 19 23 21 19 16 15 15 17 23 24 27 33 39 46 53 58 52 48 52 58 65 67 70 78 76 75 78 77 76
34 33 40 64 34 24 25 23 24 27 30 50 75 38 17 19 17 18 18 17 15 14 15 19 26 29 31 36 42 46 55 56 50 50 56 64 66 66 68 73 73 75 76 74
40 46 44 45 37 34 31 28 24 28 43 37 36 32 24 21 19 19 18 16 16 15 14 14 20 27 30 33 38 43 49 57 55 50 52 60 66 68 66 70 70 72 74 73
38 52 48 45 44 36 39 38 34 35 34 43 36 33 24 21 19 17 17 17 17 17 16 14 14 18 26 31 35 39 43 53 57 54 52 55 64 67 66 65 68 70 72 72
32 40 38 43 34 34 33 29 30 30 31 30 28 28 20 19 19 20 19 18 18 18 17 15 15 14 16 26 33 37 41 46 54 58 57 55 58 65 66 67 67 67 68 69
43 42 34 49 36 40 49 33 28 25 23 25 31 26 20 21 22 23 23 21 18 18 18 20 20 19 16 15 26 34 39 43 49 56 57 57 58 62 65 66 67 68 67 68
47 42 42 53 49 60 30 20 22 25 22 23 26 22 23 24 24 23 27 33 33 30 29 27 25 23 20 20 20 23 33 41 46 51 54 55 58 59 61 64 64 66 68 70
40 46 50 59 44 30 22 20 21 24 24 28 28 26 26 26 27 28 30 31 33 30 28 28 28 32 34 30 24 23 27 32 41 48 50 51 53 57 59 62 65 65 67 71
39 44 52 54 60 49 25 23 21 23 33 30 30 30 29 27 34 30 29 29 31 30 29 30 36 39 40 41 41 30 25 26 33 42 47 48 50 55 59 61 64 67 68 72
61 64 69 60 57 37 36 26 28 45 44 35 32 33 36 40 35 32 27 26 28 29 30 33 40 47 57 60 58 53 42 35 32 33 40 46 50 54 57 60 62 68 78 89
63 79 77 64 79 69 24 26 41 50 39 38 38 38 43 41 38 33 27 28 31 30 29 34 43 57 79 82 75 63 53 71 74 59 43 49 50 53 58 66 93 99 99 100
74 42 49 42 40 35 40 52 45 45 46 45 45 40 43 45 46 42 39 34 34 33 37 45 48 61 82 95 97 95 97 96 90 90 98 98 92 98 100 99 99 100 100 100
34 41 53 72 43 43 56 49 46 45 47 45 43 44 46 50 48 46 44 46 43 40 46 58 68 78 83 92 97 100 100 100 99 100 100 100 100 100 100 99 99 99 100 100
32 44 32 36 38 30 36 47 55 48 46 48 47 48 50 50 50 49 48 51 50 50 57 65 78 85 90 95 98 99 100 100 100 100 100 100 100 100 100 100 100 100 100 99
30 47 45 55 62 58 48 50 58 51 54 53 54 53 51 51 53 52 53 58 63 65 74 75 84 89 94 97 100 100 100 99 98 100 100 100 100 100 100 100 100 100 100 99

GFSCGP_925_rhum_084.txt.gz
RH
17 28 33 25 27 24 22 22 21 16 12 14 15 13 11 11 11 14 13 14 13 18 22 28 34 42 46 49 55 77 85 91 98 99 100 100 100 100 99 94 95 91 93 95
30 30 21 19 16 21 24 26 24 19 14 14 14 14 12 11 10 10 10 11 13 15 18 30 39 44 48 53 59 86 87 95 95 98 100 99 99 100 96 92 98 99 85 76
55 41 27 28 24 20 20 27 24 23 17 15 16 18 16 13 11 10 9 9 10 12 18 33 43 47 53 57 62 82 88 97 98 100 100 100 100 98 90 90 84 81 80 76
80 49 44 50 46 37 32 21 20 22 24 29 18 28 18 14 13 12 11 11 12 12 16 30 42 48 54 58 62 68 79 97 96 100 100 100 97 92 87 85 85 89 81 74
64 58 52 58 44 43 43 25 31 32 31 28 22 25 21 14 14 11 10 11 14 14 15 26 42 44 51 58 64 70 86 97 95 100 99 100 96 83 84 78 76 77 72 68
53 42 55 58 41 32 44 44 41 35 32 40 25 26 26 19 16 12 10 11 13 14 16 19 40 42 47 56 64 74 90 95 88 100 100 99 93 83 86 78 69 71 73 67
46 46 39 32 56 35 30 44 80 74 53 48 23 26 24 17 14 12 12 12 12 14 19 21 38 43 46 55 65 79 87 93 92 100 99 97 92 87 86 82 75 71 77 77
70 66 45 39 37 47 38 34 70 71 62 45 23 28 21 15 13 11 11 12 12 15 22 23 32 41 44 52 62 69 78 83 93 93 98 95 91 87 85 82 78 73 72 73
58 61 29 36 32 44 53 46 30 50 54 78 49 22 17 14 14 13 13 14 15 16 18 21 26 40 42 49 60 64 67 73 86 86 92 90 93 92 89 87 82 77 71 69
32 59 34 31 29 34 43 37 64 68 77 91 42 31 26 21 18 16 16 18 16 14 15 18 21 39 39 46 57 65 61 64 76 86 84 86 89 90 88 90 84 78 72 68
28 40 39 42 48 55 45 66 75 67 58 98 86 49 35 27 23 22 21 19 20 20 21 19 23 34 38 43 50 62 59 60 66 85 85 81 84 88 88 85 86 81 75 73
37 44 45 40 39 25 36 43 55 93 88 61 80 69 29 28 22 23 25 20 19 18 18 22 24 29 36 40 46 55 59 54 56 69 83 83 84 81 87 88 85 84 78 72
36 41 50 45 37 27 32 42 44 55 63 96 100 61 29 23 24 20 22 21 19 18 18 20 26 26 32 37 42 49 56 59 52 57 66 82 83 83 83 84 85 87 82 75
40 46 52 83 80 81 45 33 39 47 66 77 78 68 48 38 34 25 20 20 19 19 18 17 20 29 30 32 38 44 53 59 57 52 58 67 74 78 79 79 79 82 88 84
35 58 45 38 65 66 63 68 71 40 49 57 48 45 47 40 27 21 19 18 18 17 17 17 18 21 29 33 35 39 45 56 60 55 52 58 65 69 71 74 79 77 77 81
34 49 41 41 36 33 38 49 36 59 56 38 36 34 37 32 18 20 20 20 21 22 27 27 25 25 24 26 34 35 40 47 58 60 56 53 58 66 70 70 71 75 76 77
42 45 44 50 35 41 54 40 30 26 24 26 33 28 23 22 21 24 26 34 34 33 32 31 30 30 30 28 32 34 36 40 50 58 59 57 54 59 67 70 70 71 74 76
46 46 47 59 47 77 38 26 24 29 24 22 21 44 28 26 23 29 33 36 37 35 35 34 38 39 38 39 37 35 28 38 43 49 55 58 58 57 60 68 70 70 70 74
41 47 62 64 53 36 26 21 21 23 23 30 38 41 34 27 26 49 35 36 34 36 35 34 37 42 53 56 55 51 48 31 38 44 48 53 58 59 60 63 68 70 71 72
41 47 61 63 63 56 26 18 22 19 33 37 34 41 34 31 49 48 32 28 27 27 30 31 39 54 66 71 71 63 53 49 45 46 45 48 52 55 59 62 65 68 69 71
61 63 75 72 69 43 24 28 26 41 59 42 40 43 43 48 45 39 34 29 27 29 31 40 47 70 79 86 86 75 82 86 84 80 81 59 50 52 54 58 62 65 68 71
58 78 78 67 69 72 28 28 43 54 47 44 44 43 46 41 40 41 40 40 44 40 42 50 62 75 82 89 92 92 96 99 98 95 96 96 91 76 59 59 74 78 88 98
62 47 55 48 48 32 45 54 46 43 46 46 47 43 44 48 47 45 45 44 43 42 46 53 61 71 83 91 95 96 99 100 99 99 100 100 100 100 100 100 99 96 96 98
63 40 83 60 68 74 84 56 46 44 49 45 45 46 48 52 50 50 47 51 51 51 57 64 75 81 87 92 96 99 100 100 100 98 100 100 100 100 100 100 100 100 100 100
56 66 52 56 66 84 86 71 63 48 47 48 47 49 53 53 54 54 53 57 57 61 69 74 82 87 92 96 100 100 99 100 99 99 96 99 100 100 100 100 100 100 99 100
71 78 84 98 69 83 87 64 57 57 56 55 53 54 54 58 58 56 57 63 66 69 76 80 86 90 94 98 100 100 100 99 100 100 100 100 98 100 99 98 99 98 100 99

GFSCGP_925_rhum_087.txt.gz
RH
22 22 30 32 33 34 33 36 33 26 18 19 19 19 15 13 15 19 22 23 22 27 30 35 42 46 50 70 82 87 89 92 89 100 100 100 98 100 100 100 99 99 99 98
34 33 22 21 23 28 35 48 53 31 23 22 22 22 17 14 15 17 20 21 20 24 31 42 49 52 52 70 77 85 87 92 90 99 99 100 98 100 99 100 100 99 100 100
53 40 37 34 28 36 46 39 40 34 26 24 29 25 22 16 15 15 15 15 16 19 32 48 53 57 61 75 83 85 86 87 89 98 98 100 100 100 100 100 100 100 98 91
73 61 63 55 50 39 50 35 31 45 64 76 36 49 26 19 17 15 14 15 15 16 35 48 54 61 66 75 72 76 84 88 86 95 100 100 98 97 97 97 98 99 100 95
64 63 75 81 56 55 50 43 48 66 68 57 48 49 31 21 21 19 15 14 17 17 44 50 56 58 66 70 75 79 85 82 90 99 96 99 98 91 90 94 95 96 95 91
54 42 52 70 61 57 56 79 70 65 70 94 65 54 38 25 20 18 16 15 15 20 43 49 52 61 67 69 76 82 84 86 99 100 99 99 95 90 90 86 91 93 85 78
48 45 45 44 62 56 80 89 100 99 99 88 44 52 40 24 18 18 17 15 16 19 39 51 57 63 68 74 82 83 82 90 96 100 100 97 91 88 87 80 82 86 83 78
57 78 42 40 55 68 65 88 95 85 92 78 38 44 30 19 16 16 15 17 19 25 44 52 54 59 67 74 81 85 86 85 94 100 100 100 92 86 85 77 75 79 79 75
56 60 42 45 54 44 78 88 57 88 73 100 72 48 22 18 17 17 16 16 20 30 46 51 52 55 64 73 82 83 86 85 87 100 100 100 96 87 84 81 73 72 73 72
35 54 39 38 43 48 69 73 79 98 92 96 63 53 42 29 22 20 22 25 26 23 27 44 50 53 58 69 81 83 83 87 89 90 99 98 96 91 88 83 78 74 70 71
35 47 47 40 62 60 65 96 92 80 77 99 98 82 59 48 31 33 28 27 25 26 28 34 46 49 54 66 75 78 82 83 90 83 94 92 98 92 90 88 83 79 75 73
43 55 60 45 34 46 69 80 82 99 82 80 98 91 60 62 41 28 26 22 25 23 29 33 46 49 54 63 71 71 72 74 88 86 84 85 83 97 94 94 89 86 83 77
41 68 81 57 45 37 51 67 70 72 86 98 97 83 69 60 47 37 29 24 24 22 23 23 44 48 52 54 68 70 68 68 76 87 86 85 79 84 97 92 91 90 86 81
41 58 65 86 91 96 86 68 66 91 99 78 97 81 62 63 56 48 34 24 24 25 30 29 30 45 49 51 59 68 68 66 66 83 88 88 83 80 83 93 91 90 91 86
44 66 60 50 44 83 87 95 83 89 78 96 64 72 64 67 62 46 32 31 36 35 34 33 33 36 38 48 50 58 65 67 60 61 81 90 88 86 87 83 89 91 91 90
38 58 55 56 39 38 70 61 68 74 86 79 75 75 68 45 41 36 42 40 41 39 38 40 43 42 42 44 44 54 59 67 66 60 59 73 87 89 88 87 87 87 88 94
54 56 62 69 47 45 65 51 62 61 59 54 82 65 35 42 52 47 49 44 42 42 42 46 48 61 65 68 66 64 58 56 68 66 62 58 68 80 83 86 87 87 86 86
58 63 58 74 57 78 48 34 32 33 42 40 56 51 49 53 45 42 44 41 43 40 42 46 65 69 74 79 81 74 63 56 75 70 68 64 60 67 75 77 79 83 88 87
52 63 79 83 75 49 34 27 29 29 55 55 57 59 49 43 44 49 46 36 35 39 45 70 76 81 82 86 88 84 91 87 92 90 92 85 70 65 66 74 76 77 78 83
50 61 77 83 81 76 43 29 29 31 72 50 54 60 54 54 78 65 49 50 53 65 77 78 82 83 86 88 88 89 95 93 94 95 95 97 96 86 73 70 70 76 79 78
72 76 84 84 93 71 37 33 33 54 78 58 52 54 54 62 65 54 49 48 49 54 62 68 78 86 88 90 89 89 93 96 98 99 100 100 100 100 100 88 72 72 78 80
73 84 93 87 86 81 46 40 61 73 59 54 56 60 63 60 56 54 55 55 57 61 67 75 79 84 87 90 93 93 96 98 99 100 100 100 99 100 100 100 100 96 87 83
93 66 80 68 69 86 78 72 70 55 60 60 62 58 58 60 59 57 61 61 62 66 72 77 79 82 88 93 96 97 99 100 99 98 100 100 99 98 99 99 100 100 100 100
95 73 67 67 89 90 89 78 54 60 58 55 56 59 60 64 62 62 63 64 67 72 75 79 81 84 87 93 98 100 100 100 95 99 100 100 100 99 89 91 99 100 100 100
96 85 83 93 93 90 91 89 75 59 57 56 56 62 66 65 65 65 69 69 69 73 76 80 84 87 90 95 100 100 100 100 98 100 100 100 100 100 100 100 100 100 98 98
71 98 100 99 99 95 95 79 63 66 66 63 67 70 66 67 68 61 68 70 72 75 79 82 85 88 91 97 100 100 100 100 100 100 100 100 100 100 99 98 99 98 100 99

GFSCGP_925_rhum_090.txt.gz
RH
24 22 28 27 31 38 40 42 45 41 36 42 35 30 25 21 19 18 16 18 17 24 26 46 59 61 80 85 89 88 90 92 92 92 94 98 99 97 91 86 96 98 100 100
37 40 24 23 27 30 35 43 50 43 34 36 41 41 34 31 26 17 18 25 21 23 40 54 61 71 87 96 92 91 87 96 97 81 81 91 97 100 99 89 89 100 99 100
48 42 33 31 32 31 41 46 44 44 40 40 57 54 40 31 26 19 18 19 21 23 40 55 63 71 94 99 95 93 92 100 93 80 87 97 100 99 100 100 99 99 99 99
60 59 64 70 67 54 52 40 40 38 77 81 49 76 51 41 34 26 19 20 20 22 32 52 61 72 91 95 92 91 92 95 93 84 96 98 98 99 100 99 100 99 100 100
59 71 72 77 76 59 57 38 42 52 78 80 67 87 60 39 36 27 21 19 18 19 33 53 58 66 82 95 97 95 92 96 98 88 91 99 97 98 97 100 100 100 100 99
51 52 65 64 56 63 52 56 67 64 83 96 62 73 64 46 34 26 20 19 19 19 33 50 53 62 87 92 94 94 95 94 95 90 96 96 94 95 97 99 100 100 100 100
52 54 51 57 68 64 76 94 100 99 98 80 48 60 57 35 28 22 20 18 19 32 44 53 63 73 86 94 98 99 97 100 97 93 97 95 94 92 91 93 97 99 98 98
63 54 47 50 57 71 72 95 100 86 95 77 48 56 45 33 27 23 19 19 18 27 50 57 66 71 78 88 96 96 99 100 100 100 93 92 91 91 89 86 89 92 92 90
55 62 45 46 47 53 82 100 79 98 96 94 73 55 36 29 30 26 19 19 28 36 55 61 66 70 74 84 91 91 94 97 98 100 99 95 90 87 90 85 84 86 88 84
37 52 40 57 58 62 67 86 98 100 95 96 71 62 74 62 55 28 28 32 33 54 54 60 65 69 71 80 86 90 88 88 97 98 100 99 96 87 87 86 80 82 82 82
42 45 52 42 59 75 88 98 97 90 86 96 93 92 77 78 65 54 44 29 35 39 61 59 60 64 71 79 86 90 88 87 93 100 100 98 98 92 86 85 82 76 76 77
41 61 65 52 34 47 64 93 95 100 90 88 100 84 88 78 66 53 48 35 27 30 37 49 58 62 72 82 86 88 88 88 88 94 99 95 93 96 94 89 85 81 74 73
38 58 91 66 55 53 85 70 82 91 96 97 96 87 81 79 74 68 63 36 36 37 38 55 62 62 70 77 83 85 87 88 90 90 95 95 93 94 95 95 90 85 81 77
41 56 76 96 81 87 98 87 93 90 100 87 90 77 72 88 87 81 71 52 40 40 42 42 52 75 72 68 75 76 81 85 91 91 88 93 89 93 94 94 90 91 89 85
51 68 61 59 51 75 77 80 83 98 94 99 80 78 66 76 85 88 75 46 43 46 49 53 58 63 64 69 73 75 72 76 86 92 90 88 88 84 88 96 92 93 96 93
51 60 55 61 48 54 46 69 76 83 94 92 92 81 63 70 80 85 79 56 46 48 58 63 66 67 72 76 76 74 74 79 76 84 91 89 90 90 86 85 93 94 94 98
55 66 68 72 51 43 59 55 73 56 75 74 93 74 65 67 70 74 67 49 46 50 67 73 75 77 83 87 88 91 90 91 84 77 79 86 93 94 91 91 90 96 98 96
60 62 66 82 58 59 43 35 39 69 63 56 57 65 58 66 64 62 68 69 71 81 84 82 81 83 86 88 90 94 94 94 94 95 95 92 86 90 96 94 95 93 92 95
64 68 81 83 78 55 36 29 41 62 72 62 70 64 65 73 63 68 62 69 82 82 80 79 83 85 87 88 90 89 91 92 92 94 97 100 100 98 94 92 95 94 93 94
58 65 78 86 87 81 49 39 35 46 90 60 61 69 62 58 90 84 62 63 68 70 77 80 84 84 85 87 87 88 89 92 94 95 97 100 100 100 99 100 100 93 91 94
85 88 83 82 92 77 54 62 47 62 83 62 62 65 70 79 79 66 64 64 65 70 75 79 82 85 87 89 87 89 92 94 94 96 98 98 100 100 100 100 99 99 100 96
81 94 88 89 90 88 76 63 85 78 65 65 66 67 70 67 67 66 65 68 69 72 76 78 80 83 87 92 93 91 96 99 95 97 97 99 100 99 100 100 100 98 98 99
98 86 86 75 74 86 75 79 70 64 75 73 73 68 67 68 69 67 70 70 71 74 77 78 80 82 88 93 97 97 99 100 97 98 99 100 99 100 100 100 100 99 96 98
100 90 90 85 96 87 91 81 71 75 77 67 65 66 65 71 68 70 70 71 73 76 76 79 81 83 88 94 99 100 100 100 98 100 100 100 100 100 100 100 100 100 100 100
98 96 100 100 97 96 95 89 84 73 65 69 71 69 71 69 72 73 75 73 73 76 77 81 84 86 90 95 100 100 100 100 99 100 100 100 100 99 100 100 100 100 100 100
94 100 100 98 100 98 100 88 85 83 79 72 72 74 73 71 74 72 78 78 77 80 81 83 87 90 94 98 100 100 100 100 99 100 100 100 100 100 97 97 99 100 100 98

GFSCGP_925_rhum_093.txt.gz
RH
27 33 35 27 39 38 42 46 50 42 34 43 42 46 42 36 38 37 34 28 22 18 18 34 64 75 85 88 88 89 94 95 99 100 100 100 98 87 85 84 87 100 99 100
39 38 27 23 27 32 38 45 44 44 40 38 49 51 40 36 41 34 32 27 23 18 44 52 71 82 92 98 100 100 97 100 100 100 100 99 99 82 77 85 82 86 93 100
54 43 36 29 26 30 31 38 43 45 42 46 52 45 36 27 30 31 31 29 23 19 43 61 71 89 96 99 100 100 100 99 99 98 89 93 93 87 90 91 86 88 100 99
46 50 61 67 66 57 70 41 43 45 63 63 58 58 36 33 39 36 32 30 24 25 40 60 67 86 93 99 100 99 100 99 99 91 84 81 96 98 99 93 95 98 98 99
62 75 74 73 69 66 68 51 52 48 77 89 78 88 42 43 45 38 33 28 24 20 36 57 67 72 87 99 100 100 100 99 100 92 82 79 96 100 97 99 99 100 100 98
52 57 61 58 60 65 60 62 62 74 81 89 63 76 56 44 43 37 30 28 24 22 25 48 56 67 88 100 100 100 99 99 99 93 85 80 92 90 100 100 100 100 100 100
54 60 56 64 72 66 76 81 97 98 96 86 54 72 58 42 35 33 30 25 22 23 26 48 64 76 97 98 99 99 99 100 100 96 90 84 85 89 98 92 99 100 100 100
70 50 59 58 61 76 92 77 91 88 93 85 49 65 53 37 32 33 28 27 24 23 31 52 61 73 92 97 98 99 99 99 100 100 94 85 85 93 97 91 96 97 98 99
59 56 45 54 52 58 81 89 80 100 100 99 75 60 45 59 59 52 44 41 35 24 27 52 60 74 84 95 98 100 100 99 98 98 96 89 84 88 93 94 94 96 96 98
41 51 49 57 59 60 77 81 99 100 97 96 75 68 76 87 83 67 59 40 38 51 53 53 65 73 80 89 96 99 98 99 98 96 98 91 86 83 81 87 91 93 94 94
43 46 50 64 73 83 83 91 96 97 100 98 91 87 83 93 87 82 75 57 46 46 68 69 68 72 78 86 94 97 97 99 100 96 95 99 93 90 84 86 87 84 86 88
39 61 70 57 41 59 77 79 91 100 98 93 92 85 90 89 80 72 74 64 51 50 62 73 72 74 82 87 92 95 94 95 100 97 94 98 97 92 91 90 85 84 84 85
42 64 83 69 66 72 85 86 92 89 98 98 98 83 77 88 82 72 72 72 56 56 71 71 76 81 87 91 91 92 92 91 96 100 98 98 100 96 90 87 86 85 83 82
45 60 73 91 87 69 93 80 82 96 100 95 91 83 81 87 88 78 73 77 64 61 71 73 82 88 88 89 89 88 89 88 90 95 100 98 100 99 92 80 80 84 87 84
55 64 63 65 68 61 75 79 74 84 94 100 86 76 77 77 86 88 87 82 72 68 69 72 80 84 84 86 86 86 87 87 87 90 93 100 100 100 98 94 89 82 84 88
55 60 58 64 56 62 69 47 43 65 74 86 93 94 61 80 85 88 88 88 77 77 77 78 82 85 87 89 92 94 97 97 91 91 96 96 94 96 95 99 96 95 92 88
59 64 71 75 56 53 55 51 50 67 64 77 97 72 64 82 86 84 89 88 91 85 84 82 83 84 87 93 95 95 96 94 95 92 94 98 95 92 92 92 94 100 100 99
66 68 74 86 58 70 39 29 68 66 80 74 68 76 79 81 80 87 90 92 92 87 87 85 84 85 88 90 88 90 90 92 92 95 96 99 98 99 100 99 97 96 98 100
66 72 80 84 73 48 42 44 55 60 61 70 81 81 77 81 84 92 83 85 86 84 84 81 83 85 86 88 87 86 88 88 91 94 95 98 100 100 99 100 100 100 99 99
75 69 78 91 85 76 52 59 56 64 91 69 80 84 81 68 93 91 85 84 82 79 79 80 83 86 89 90 90 88 90 90 92 93 94 96 98 99 100 100 100 100 100 100
89 91 90 87 82 74 51 77 66 75 80 73 74 85 92 92 88 78 69 74 74 77 78 79 81 86 91 93 92 92 94 93 93 95 96 96 98 96 100 100 100 100 100 100
80 97 98 92 93 89 81 75 80 83 76 75 76 78 83 78 74 72 69 71 73 75 76 77 79 83 90 94 94 94 97 96 95 95 98 100 100 100 100 99 98 98 99 100
94 85 96 79 76 85 82 87 82 78 81 79 75 72 69 72 72 71 74 76 74 75 76 77 79 82 89 95 99 98 100 98 98 98 100 100 100 100 100 100 100 100 99 100
95 97 100 95 94 94 94 87 82 83 88 80 73 72 69 75 73 74 73 74 75 74 77 79 81 84 89 95 100 100 100 99 100 100 100 100 100 100 100 100 100 100 100 100
98 97 100 100 99 97 97 96 96 96 78 80 83 83 75 72 77 78 78 76 78 80 78 82 85 88 92 96 100 100 99 100 98 100 100 100 100 100 100 100 100 100 100 100
99 100 99 99 100 100 100 99 95 96 95 72 72 73 73 74 77 76 81 81 81 84 87 88 90 91 94 98 100 100 100 99 99 100 100 99 100 100 99 97 100 100 100 100

GFSCGP_925_rhum_099.txt.gz
RH
35 38 40 34 30 29 34 41 43 39 32 36 36 34 30 31 29 31 30 28 27 25 22 24 24 23 50 75 84 86 94 95 97 99 100 100 99 100 100 99 98 88 98 98
36 43 35 29 30 30 31 33 35 34 32 34 34 34 28 30 29 27 26 25 28 26 24 23 23 26 48 67 81 88 91 99 98 100 100 99 100 96 96 98 99 95 98 100
44 43 31 31 31 33 32 33 34 32 28 35 37 34 25 20 20 21 22 24 23 24 24 24 27 33 49 65 79 86 87 99 100 100 100 96 99 95 98 99 98 98 100 100
50 37 34 31 32 29 37 30 27 34 44 48 49 50 27 27 26 24 23 23 27 26 27 25 25 32 56 65 79 86 89 98 100 99 100 98 94 96 95 100 98 96 89 97
49 59 60 50 46 34 44 49 44 48 55 64 58 57 32 24 22 29 32 34 32 25 26 26 25 27 45 69 83 88 92 97 100 100 100 99 98 98 100 100 98 97 93 92
52 58 53 49 65 58 58 58 61 67 65 73 56 47 37 36 36 44 49 56 48 33 30 29 26 32 55 78 86 92 96 97 99 100 100 99 100 92 91 98 92 95 95 91
62 66 59 58 71 66 62 57 70 76 88 56 47 61 46 39 50 64 63 58 57 55 53 42 29 46 70 82 88 92 94 99 99 100 100 98 98 92 97 98 89 94 93 98
63 72 65 60 52 65 66 59 59 55 73 70 60 63 46 65 64 58 53 54 54 59 59 52 39 50 69 82 86 91 92 97 98 99 100 100 97 93 92 92 89 98 98 98
55 54 54 56 57 54 78 72 67 86 75 78 54 48 44 64 63 61 55 55 61 66 65 62 50 43 71 83 86 90 94 92 98 99 100 100 98 94 92 93 100 99 99 99
45 69 57 60 53 66 64 66 87 85 88 84 61 60 53 63 71 65 58 60 70 72 76 65 56 44 70 79 86 90 92 91 97 99 100 100 97 94 94 96 99 96 86 96
43 51 72 63 63 73 80 81 85 79 92 91 77 64 70 72 72 74 63 66 76 82 85 76 74 75 80 81 84 93 94 94 98 100 100 100 98 96 89 95 100 100 88 88
52 59 68 66 59 56 63 70 67 80 94 85 97 59 73 69 65 65 62 76 78 82 89 84 85 84 81 83 91 95 95 96 98 100 100 100 100 99 93 98 93 98 99 92
55 65 88 95 67 56 67 72 74 100 97 89 88 56 60 51 62 58 67 77 80 84 87 88 90 89 86 92 96 98 98 97 98 100 100 100 100 100 98 96 90 96 99 99
56 64 59 66 68 64 74 75 69 78 95 74 78 63 55 54 63 59 76 84 88 87 89 87 88 91 94 96 97 99 99 98 98 97 96 98 99 98 99 99 96 93 97 98
56 64 59 57 56 65 63 62 57 57 60 80 55 57 44 56 63 78 84 78 88 90 90 90 88 90 90 92 96 99 100 100 100 100 100 99 98 92 96 100 99 94 93 95
54 65 59 59 50 58 57 48 41 46 53 56 52 52 42 52 57 87 88 83 88 90 86 87 85 85 88 92 94 96 98 100 100 100 100 100 96 94 94 96 100 99 96 95
61 62 59 52 58 55 46 44 39 59 61 64 72 59 54 68 93 96 93 90 92 92 92 90 87 84 85 92 95 95 96 97 98 99 100 100 100 100 100 100 98 96 98 100
66 64 66 65 61 55 34 34 44 48 51 66 69 74 86 94 95 94 91 92 93 94 95 94 90 88 88 88 91 97 97 95 96 97 96 97 99 100 100 100 100 100 100 100
60 66 74 69 65 48 44 70 65 69 50 78 92 86 86 91 88 100 100 100 99 96 94 97 96 95 90 90 90 88 89 88 94 95 96 96 98 99 100 99 99 99 99 100
70 68 66 76 72 72 59 66 65 71 66 80 90 90 83 80 98 100 100 100 98 91 85 84 90 91 92 94 90 89 88 88 91 93 97 99 99 100 100 100 99 100 100 100
80 84 84 85 73 63 82 74 68 44 78 91 89 95 93 95 100 100 100 99 99 88 77 79 82 87 92 93 93 94 92 92 93 98 100 100 100 100 100 100 100 100 100 100
73 79 87 76 82 82 82 70 84 89 89 94 94 95 96 99 97 95 97 96 93 92 75 77 80 86 90 94 93 95 97 96 96 97 99 100 100 100 100 100 100 100 100 100
94 98 94 85 96 98 92 97 94 85 96 99 99 100 97 96 96 96 90 76 75 77 77 78 80 83 90 94 99 98 100 98 95 97 98 100 100 100 100 100 100 100 100 100
92 78 89 87 100 100 100 100 100 99 94 94 96 94 92 91 92 93 90 78 76 80 81 82 82 84 88 92 98 100 100 98 96 97 98 96 98 98 98 100 100 100 100 99
87 79 95 98 94 99 98 100 97 94 93 89 90 92 92 85 87 84 84 83 80 79 80 82 83 85 89 92 96 100 100 97 94 96 98 96 96 94 98 100 100 100 100 100
83 91 90 97 98 95 100 98 94 91 91 90 77 77 75 73 74 73 76 79 80 81 83 82 84 86 89 91 95 100 100 100 94 94 97 100 99 97 93 93 99 100 100 100

GFSCGP_925_rhum_102.txt.gz
RH
21 24 26 25 25 24 21 21 22 19 21 28 24 23 20 18 19 21 19 19 17 16 14 13 14 17 20 28 42 53 63 76 100 100 93 94 100 98 100 98 99 100 100 98
26 23 16 17 23 25 22 23 23 19 19 23 22 21 17 16 17 17 18 18 17 17 16 15 15 16 20 24 41 51 58 70 92 86 81 83 95 100 99 99 100 100 100 98
23 14 12 17 23 28 23 24 23 25 20 19 22 22 17 14 14 15 15 16 15 16 16 16 16 16 17 24 35 48 54 63 80 70 73 82 88 99 99 100 99 98 100 99
27 23 28 28 27 25 26 21 24 24 25 27 32 22 18 16 17 17 18 19 18 18 17 16 16 16 16 22 31 43 50 59 76 73 75 84 81 82 81 87 98 99 98 100
39 37 33 33 28 23 26 26 25 25 30 33 30 37 19 18 17 26 33 36 36 36 32 25 20 18 17 18 31 45 51 57 72 78 75 80 70 69 72 80 93 92 88 94
44 39 33 34 34 26 36 41 43 42 39 51 30 30 20 23 29 33 41 39 39 38 37 35 27 22 20 18 29 52 55 60 70 81 79 77 72 70 72 81 76 79 85 82
48 54 48 43 58 47 42 45 61 71 77 42 31 35 24 33 46 45 43 40 41 42 42 40 34 27 22 22 44 56 59 61 77 90 81 80 81 76 72 72 69 68 80 87
46 66 58 50 41 46 46 39 40 40 42 34 42 42 32 44 45 40 37 38 42 46 52 49 39 32 25 34 51 58 59 63 86 94 87 82 84 76 72 75 65 69 73 83
44 49 47 45 43 37 50 62 43 63 56 58 29 29 32 39 40 40 38 43 49 52 63 65 47 36 30 40 54 62 62 66 87 92 93 93 82 75 72 73 74 77 88 94
33 62 46 52 43 50 44 44 67 60 69 60 35 36 37 47 47 43 43 44 52 59 74 77 58 43 32 46 59 73 76 77 91 96 96 95 80 78 76 78 81 83 93 98
34 41 72 54 50 51 61 61 60 55 68 65 50 49 52 46 41 45 43 44 58 69 79 82 78 59 47 52 64 82 84 84 94 99 98 88 80 80 79 78 83 84 92 99
42 47 66 53 45 38 43 48 50 60 76 62 68 44 46 36 35 41 44 56 59 64 78 80 85 79 66 60 73 84 85 92 98 100 99 87 82 81 79 78 84 87 88 95
48 51 69 75 58 49 50 50 60 87 80 72 62 40 36 31 34 42 52 71 68 69 80 82 83 88 88 82 86 84 92 99 100 100 99 90 88 82 76 77 83 87 89 88
42 48 45 47 52 51 65 54 50 56 68 54 54 43 33 31 35 45 58 73 67 70 80 82 85 88 90 97 95 96 99 99 100 100 96 91 90 81 76 77 84 87 87 87
48 48 42 40 42 42 43 42 40 39 41 54 36 40 36 38 46 50 75 79 78 82 87 87 90 89 88 92 97 99 100 100 100 100 95 92 89 87 86 87 86 86 89 88
58 52 33 38 38 38 40 32 26 28 38 44 43 45 44 74 75 88 88 85 88 86 93 93 94 89 90 93 96 99 100 100 100 100 100 98 97 99 99 92 92 91 92 87
44 42 33 44 34 33 34 31 34 35 35 46 62 58 68 92 93 96 95 95 93 94 93 97 95 90 92 94 98 98 100 100 99 98 99 99 100 100 100 100 99 96 92 88
42 37 38 43 44 36 35 36 35 34 48 66 71 84 82 90 95 97 99 100 96 97 94 98 98 98 97 92 88 98 97 96 96 97 97 99 100 100 100 99 100 100 100 100
44 41 50 46 39 42 54 56 56 55 56 74 88 88 78 85 79 98 100 100 100 100 98 98 100 100 100 98 94 87 89 93 93 96 98 100 100 100 100 99 100 100 100 100
48 46 44 50 48 52 64 50 46 49 63 73 79 94 92 88 99 92 100 100 100 99 96 86 86 93 98 100 94 88 87 86 91 98 98 98 100 99 100 100 100 100 100 100
56 59 59 62 59 56 67 49 47 57 88 90 85 89 87 92 99 100 100 98 98 99 94 91 88 82 87 90 97 94 89 89 88 92 95 94 91 97 99 99 100 100 100 100
58 64 65 59 67 80 93 52 73 96 95 95 93 82 89 91 96 94 97 96 94 95 73 71 74 79 83 88 87 91 94 97 96 90 90 92 94 93 94 96 98 98 99 99
88 84 84 88 98 100 100 98 92 87 94 99 98 96 90 92 93 94 94 91 87 85 81 70 72 75 80 84 91 92 95 91 94 95 90 91 90 89 93 94 92 92 92 92
80 61 81 98 95 97 99 94 93 84 90 85 86 80 72 77 81 86 80 78 73 76 68 68 66 68 73 80 86 93 96 89 89 87 87 93 94 92 90 91 96 97 93 93
69 64 94 99 95 85 81 89 88 85 77 74 72 74 72 68 68 68 68 65 67 68 68 68 68 68 70 74 81 87 89 89 86 88 88 87 88 90 97 100 100 100 100 100
66 84 83 90 98 88 92 89 82 80 82 76 67 59 58 58 60 60 61 65 64 66 69 68 70 71 72 74 82 87 88 87 88 88 90 93 90 86 83 87 97 100 100 100

GFSCGP_925_rhum_108.txt.gz
RH
30 26 21 18 19 23 22 23 23 20 16 18 19 17 15 14 15 14 14 14 14 14 13 11 11 11 10 9 10 33 62 71 78 76 72 69 69 68 68 70 76 77 82 86
33 32 17 13 13 17 19 25 26 24 21 19 21 21 17 16 15 14 14 15 15 16 15 14 14 14 11 11 13 22 56 72 75 76 73 69 68 84 84 84 81 79 78 83
32 24 17 13 13 14 16 23 32 33 24 17 17 21 19 16 14 12 12 12 13 16 17 16 16 16 16 15 17 20 31 67 72 76 76 68 73 92 89 91 89 84 79 76
26 20 19 14 14 12 18 16 24 27 30 26 16 25 17 14 14 12 11 12 13 13 18 17 18 19 17 18 18 20 24 40 65 73 76 70 81 89 87 83 84 86 82 78
28 32 22 15 13 10 15 18 26 27 28 26 21 22 17 13 12 12 16 27 28 27 28 27 27 26 24 22 20 22 23 34 53 73 68 68 69 77 84 76 86 84 88 78
19 18 28 11 13 11 13 24 29 28 30 40 28 23 17 14 13 18 27 28 28 32 37 38 41 40 33 25 24 21 25 30 40 68 70 64 66 68 75 76 86 89 82 81
22 40 59 11 15 15 19 29 65 73 77 60 23 22 19 26 24 26 29 35 38 41 46 46 48 51 54 57 54 24 23 28 34 58 71 64 65 65 66 72 80 87 83 81
37 76 55 22 21 20 24 32 70 54 57 44 25 35 21 24 27 27 32 34 39 43 46 49 54 58 62 63 62 73 25 23 32 46 65 67 64 67 63 67 75 78 81 86
94 80 53 35 18 24 31 44 36 64 50 60 38 42 48 32 31 34 34 38 43 45 49 56 59 64 71 68 74 78 69 24 30 40 61 66 67 68 64 65 66 65 76 78
63 96 78 46 46 30 41 35 70 76 95 95 54 62 76 67 46 36 49 51 50 49 52 58 62 69 74 74 80 92 36 25 33 41 60 64 69 67 64 68 63 59 74 74
88 97 61 44 73 70 88 77 63 55 53 83 54 98 75 67 55 58 56 54 55 56 55 58 64 72 78 79 86 95 59 40 48 58 66 67 70 67 66 67 63 64 74 77
50 76 68 58 34 33 67 74 66 70 46 52 92 100 82 71 60 59 64 63 63 62 62 59 64 74 81 83 89 93 97 84 82 81 82 74 75 72 73 69 67 76 77 76
50 70 84 85 60 46 56 40 37 55 66 57 64 96 66 61 69 70 75 72 69 70 72 69 66 73 83 86 90 95 99 91 91 91 87 81 80 83 76 70 74 78 78 80
53 56 57 94 73 47 58 52 43 40 64 50 62 97 69 78 85 84 82 77 76 75 75 77 81 78 86 90 91 96 98 100 98 96 94 91 92 83 77 72 79 77 78 82
74 97 99 92 56 38 55 47 40 47 36 47 67 88 80 81 88 90 86 81 84 85 86 84 84 86 86 90 94 96 98 100 100 100 100 98 93 90 79 80 74 77 85 84
59 74 56 97 67 60 84 31 24 48 58 67 93 99 72 72 73 85 86 89 94 96 95 92 93 91 94 93 97 97 98 100 100 100 100 100 100 91 89 88 87 86 87 87
66 50 56 46 30 36 49 40 58 57 62 73 96 95 80 90 92 95 94 94 98 100 100 100 99 98 98 98 99 99 100 99 99 100 100 100 100 100 98 92 90 92 93 90
61 45 42 47 37 84 62 46 52 66 66 60 79 95 95 96 97 95 100 98 99 100 100 100 98 98 100 100 100 100 100 99 100 100 100 100 100 100 100 100 100 100 99 100
36 43 50 51 46 59 58 62 69 74 91 72 73 70 95 100 93 96 99 100 100 100 100 98 100 100 100 100 100 100 99 100 100 100 100 100 100 100 99 100 100 100 100 100
30 39 50 49 46 80 84 67 53 51 96 83 69 76 75 84 97 96 98 100 99 98 64 66 71 75 90 100 100 99 100 100 100 100 100 100 100 100 100 98 99 100 99 100
58 62 65 57 65 84 80 63 52 78 99 96 80 78 84 94 97 100 100 99 100 99 94 57 63 69 73 84 96 99 100 100 99 99 99 99 99 100 100 99 99 100 100 99
66 88 75 75 82 89 78 61 80 98 100 96 88 81 83 86 88 92 98 92 66 64 57 55 56 64 70 75 79 89 99 99 100 98 98 98 99 98 98 99 99 99 100 99
84 72 74 85 95 88 79 90 86 76 86 84 78 71 76 78 80 78 69 56 51 52 53 53 55 59 67 73 78 80 87 95 97 97 99 100 98 100 99 97 98 100 99 98
61 51 82 88 91 84 79 71 68 68 71 64 59 57 56 59 56 56 53 51 50 51 54 55 57 60 66 73 81 84 85 87 89 96 100 98 96 98 98 100 100 98 98 100
58 59 83 88 83 76 74 73 69 68 58 51 46 47 49 47 49 49 51 50 51 54 55 59 62 66 70 77 85 90 91 89 90 90 96 99 92 92 98 100 100 100 100 99
58 75 85 91 99 83 86 69 64 65 58 50 47 45 44 45 47 48 52 53 52 55 58 63 68 72 78 83 88 97 96 94 95 97 99 99 100 97 90 94 100 100 100 100

GFSCGP_925_rhum_111.txt.gz
RH
32 52 49 35 24 22 30 37 38 29 23 24 26 24 22 18 16 17 17 19 16 19 17 14 13 12 11 10 12 53 64 75 78 76 75 76 74 81 81 82 72 74 83 89
24 42 40 29 23 21 23 26 28 24 20 22 30 47 33 19 17 16 18 19 21 17 16 15 16 16 14 11 11 48 69 75 75 77 77 76 74 75 75 80 78 75 81 85
38 23 32 33 27 22 20 23 24 25 20 27 49 50 35 25 17 19 18 18 18 20 20 17 16 17 18 17 13 48 69 79 79 79 79 74 73 72 76 80 82 81 79 80
35 21 22 30 31 22 22 15 17 19 23 64 57 56 23 23 20 16 16 16 19 35 34 36 44 43 34 28 24 52 71 77 78 76 76 75 79 88 84 81 80 84 84 82
75 30 25 30 34 19 18 16 17 27 72 67 60 45 28 20 18 16 15 38 42 51 53 56 58 57 60 63 65 64 49 79 78 77 74 74 79 82 89 88 84 79 79 86
56 27 21 29 38 47 17 22 54 53 57 86 41 38 37 22 18 36 44 50 53 57 58 59 58 60 64 69 69 71 69 58 76 79 76 75 77 85 89 88 92 88 86 83
52 37 21 34 51 48 25 48 82 78 95 78 38 38 35 34 34 45 55 58 57 60 64 65 67 69 70 73 72 73 78 76 64 75 75 73 74 80 83 82 91 93 90 89
60 54 35 44 53 49 32 48 83 77 90 63 31 43 32 22 51 56 55 56 58 63 64 66 68 71 74 75 76 81 87 88 71 76 73 73 72 78 80 79 87 90 89 93
76 39 53 50 52 38 36 46 48 81 65 80 45 72 51 54 50 61 59 60 62 62 63 68 67 70 73 78 80 85 93 98 79 59 76 74 72 73 76 78 82 87 82 85
82 80 81 55 52 50 34 30 62 95 92 95 54 91 86 92 89 77 77 75 71 67 66 67 68 72 75 80 83 89 96 99 76 50 76 74 71 67 73 69 79 82 80 81
74 85 95 75 65 56 75 68 80 85 90 97 92 99 95 98 94 93 80 76 77 78 77 75 74 77 80 82 86 92 97 100 100 72 77 74 74 66 74 70 74 73 75 74
79 99 99 89 77 61 81 71 67 95 98 92 100 99 96 95 88 78 79 74 72 73 74 74 76 80 82 85 88 92 97 100 100 94 92 81 72 66 76 73 68 70 77 77
80 96 90 79 92 78 91 79 74 75 95 98 98 99 91 74 81 78 83 80 77 76 75 76 78 82 84 87 92 93 97 100 100 100 94 95 88 73 69 74 72 76 77 80
75 80 97 98 99 76 82 68 64 93 96 98 99 99 93 90 92 87 87 84 86 87 83 82 86 86 90 92 93 96 97 100 100 100 100 100 99 96 84 80 80 82 80 80
76 98 94 93 77 94 100 97 96 86 67 98 99 96 97 93 92 90 84 90 94 94 94 95 95 95 93 96 95 96 98 99 100 100 100 100 100 100 90 84 84 84 82 80
71 99 96 99 80 77 95 64 66 75 95 99 93 99 99 93 82 84 86 83 94 96 96 96 95 95 96 97 97 98 98 100 100 100 100 100 98 100 100 94 94 83 81 84
71 76 90 94 70 60 91 76 75 81 80 84 96 100 95 91 94 96 93 91 96 100 100 98 98 98 98 99 100 99 100 96 99 100 100 100 99 100 100 100 100 99 96 94
61 69 58 69 55 93 95 65 68 86 89 79 86 96 89 93 96 92 96 97 97 100 100 98 96 96 100 100 100 100 99 100 100 100 100 100 100 100 100 99 100 100 100 100
56 62 69 79 94 92 71 69 85 82 97 86 86 91 94 96 88 90 90 98 100 98 96 80 78 84 92 99 100 100 100 98 100 99 100 100 100 100 100 100 99 100 99 99
51 61 73 72 79 96 82 75 64 68 96 95 82 91 94 98 95 95 96 98 98 99 86 70 72 75 81 86 99 98 100 100 100 99 100 100 99 98 99 100 98 98 100 97
77 89 87 90 95 84 88 74 60 79 99 100 96 92 88 93 95 98 98 96 83 80 61 63 70 74 77 81 86 98 99 100 99 98 98 98 98 99 100 100 98 98 100 94
88 93 99 87 87 89 86 70 85 100 100 100 98 91 91 90 90 87 93 80 62 61 57 58 66 74 79 84 88 91 99 100 100 100 99 97 96 97 98 97 99 99 99 98
94 85 92 92 94 98 90 98 96 93 98 92 78 73 71 80 77 73 72 65 58 58 60 62 68 75 82 86 92 97 98 98 100 97 96 97 96 96 97 96 97 97 98 100
77 70 91 94 97 93 89 80 75 68 71 62 58 56 55 60 62 65 62 60 58 60 66 70 73 78 84 90 98 99 100 99 95 100 97 92 96 98 96 98 98 98 97 97
78 75 84 97 90 82 80 79 76 68 60 53 51 54 56 56 59 60 60 58 60 63 68 75 80 83 86 91 97 100 100 96 98 99 100 98 91 95 100 100 100 100 99 96
76 89 96 99 99 89 90 75 69 64 60 56 54 53 51 53 57 58 61 62 62 67 74 79 84 86 89 93 99 99 99 98 95 100 100 98 99 90 92 98 100 100 99 98

GFSCGP_925_rhum_114.txt.gz
RH
24 30 37 46 36 29 29 29 32 33 29 30 32 29 25 23 20 21 22 23 22 20 17 14 13 13 12 11 13 33 68 74 86 86 90 92 88 80 76 75 74 78 79 78
49 41 26 21 35 40 34 33 29 24 24 25 28 52 47 40 37 26 20 21 21 21 20 20 17 15 17 21 18 32 56 74 81 83 84 84 88 92 86 82 76 74 80 81
75 60 31 24 25 42 43 36 29 25 19 18 28 55 51 41 33 27 24 18 19 18 23 47 62 69 70 70 63 65 69 71 80 80 86 83 87 94 94 86 78 78 80 80
82 68 59 44 34 27 77 34 25 23 26 38 56 86 57 36 27 28 22 22 40 60 65 66 69 72 74 73 69 66 79 84 83 81 86 89 90 88 86 92 90 82 75 76
57 54 61 75 30 25 54 54 31 22 26 52 52 94 65 29 24 25 41 64 68 69 69 71 72 71 76 76 74 69 66 77 86 88 84 85 82 78 79 86 91 85 80 78
65 45 50 50 32 28 38 54 45 65 80 81 60 78 45 44 44 52 68 69 70 70 70 70 69 71 74 78 80 78 78 75 73 94 88 86 83 85 90 90 94 94 88 85
57 53 42 33 33 34 56 70 87 76 90 75 47 71 52 59 72 74 78 76 73 70 71 72 74 74 74 79 82 83 89 90 81 69 91 90 82 85 84 91 91 95 96 93
89 69 36 32 33 41 48 54 68 71 87 73 40 54 43 83 78 74 75 76 74 74 74 75 74 76 78 79 83 85 88 91 97 93 71 93 87 88 85 88 95 93 92 88
89 55 49 45 52 60 63 65 48 76 87 82 52 76 79 75 85 85 83 84 85 83 83 82 78 80 82 82 84 86 90 93 96 100 97 72 91 92 90 84 84 88 88 86
73 80 58 57 66 55 73 46 70 90 84 94 73 96 97 98 98 94 88 87 82 79 80 80 79 81 83 84 86 88 93 96 99 100 98 77 87 88 87 85 83 86 86 90
78 78 62 78 68 71 61 63 80 70 93 99 95 97 100 100 100 100 98 89 84 79 79 80 78 82 85 87 88 91 95 98 100 100 100 92 90 91 87 83 82 83 82 82
76 98 93 96 86 67 81 68 66 82 89 93 98 98 100 100 100 99 98 94 85 79 80 81 82 85 88 92 92 93 97 99 100 100 100 100 97 96 93 89 83 87 87 86
80 99 91 96 94 83 79 72 59 95 100 99 97 99 100 97 100 100 95 96 90 87 90 89 87 91 95 92 95 96 97 99 100 100 100 100 100 99 100 88 85 90 89 88
79 80 92 94 87 95 99 70 72 91 98 94 97 98 97 92 89 91 93 90 87 86 89 89 92 93 96 98 96 97 98 99 100 99 100 100 100 100 100 97 88 91 89 85
78 92 98 94 98 95 100 100 99 98 98 93 98 94 95 92 91 94 83 84 90 91 89 88 90 93 96 97 98 97 98 99 99 99 99 100 100 100 100 100 97 93 92 88
69 92 100 99 97 89 96 95 97 99 98 95 88 97 94 94 84 86 89 88 95 96 91 85 87 90 96 97 98 99 99 100 100 99 99 100 100 99 100 100 100 98 90 84
71 78 95 97 98 85 84 97 94 93 94 93 99 99 94 85 88 93 92 94 97 100 86 92 93 95 98 99 100 100 100 100 100 100 100 100 100 100 100 100 100 100 100 100
67 72 72 97 87 86 99 94 76 87 96 90 95 94 92 91 95 92 89 94 98 97 84 87 90 93 93 96 98 100 100 100 100 100 100 100 100 100 100 100 96 100 100 100
59 74 81 96 90 95 75 83 90 85 97 99 93 98 93 93 82 91 92 95 98 95 81 81 81 87 91 95 98 96 98 99 99 99 100 100 98 100 100 98 100 96 96 98
60 66 85 92 85 95 94 80 69 71 94 100 92 90 87 88 93 94 90 94 84 78 74 76 79 83 88 93 96 99 99 98 100 100 99 98 100 98 99 100 100 99 97 100
85 90 92 91 88 90 89 78 68 81 99 100 91 84 86 91 94 94 92 81 73 65 66 73 78 83 88 90 92 97 100 100 99 99 97 97 96 99 99 100 98 98 98 98
92 98 92 85 82 89 92 72 92 99 100 96 91 86 86 90 84 75 82 75 69 73 71 74 79 83 90 95 96 94 99 100 97 84 94 97 97 100 98 97 98 98 98 95
94 87 91 93 94 96 96 99 97 90 88 75 73 74 81 77 76 76 74 69 69 73 77 79 81 84 89 95 99 97 100 100 100 91 84 93 95 99 99 99 99 98 96 98
80 75 93 92 98 94 94 89 72 68 71 66 63 64 64 70 67 69 67 67 69 75 80 83 84 85 90 96 99 100 100 99 99 100 91 84 94 99 100 100 100 100 100 100
85 79 90 96 95 93 93 89 72 68 60 57 56 61 66 65 66 66 67 68 74 78 83 87 87 88 93 96 96 96 100 100 100 99 100 97 86 90 97 100 100 100 100 99
82 94 97 98 90 90 96 79 66 66 66 62 60 62 60 62 66 69 74 82 80 82 84 87 89 90 93 95 96 95 89 100 100 100 100 100 100 88 85 91 98 100 100 100

GFSCGP_925_rhum_117.txt.gz
RH
26 35 40 36 41 38 40 44 44 33 25 28 25 28 27 24 34 29 23 20 22 19 18 16 15 14 16 16 36 65 73 76 92 97 98 100 99 87 88 83 83 82 85 89
62 56 42 34 32 31 33 52 51 39 31 31 26 24 22 23 27 32 37 29 25 21 19 39 70 74 68 66 30 30 68 69 83 91 92 92 94 96 92 93 88 85 87 88
72 48 42 46 41 39 33 33 43 57 42 28 26 26 18 17 28 32 35 33 29 22 61 70 70 80 80 80 80 74 69 73 84 86 91 90 98 96 100 98 92 87 86 87
66 50 65 71 63 46 56 36 34 59 63 55 42 56 51 43 39 34 29 76 80 77 72 72 75 79 82 83 80 79 86 83 87 87 90 96 92 94 92 88 87 83 80 78
58 52 56 54 54 49 61 34 38 56 72 48 32 71 51 48 40 67 81 78 78 77 76 76 75 76 81 85 86 85 79 87 94 87 87 95 91 90 90 96 96 90 80 77
56 44 54 55 46 47 39 53 59 65 63 71 36 58 67 92 92 86 82 80 78 77 76 74 74 76 80 84 87 88 88 85 81 86 99 95 95 90 88 95 100 100 98 89
65 65 58 51 66 50 50 62 88 81 90 81 49 67 60 94 92 93 93 87 84 83 81 84 84 81 81 85 88 88 89 91 94 89 84 94 98 90 82 68 93 100 99 98
94 80 48 36 57 42 47 63 82 70 74 68 54 86 100 95 92 80 81 81 78 81 79 80 80 81 85 86 89 90 91 91 95 98 99 97 88 99 90 59 83 89 92 92
95 74 41 52 57 44 60 65 44 67 64 91 67 99 94 94 96 99 92 91 90 85 80 79 78 83 84 88 91 92 93 94 97 99 99 98 100 94 96 89 89 86 85 89
74 96 57 59 55 62 56 65 78 83 71 83 90 86 97 95 99 100 99 99 96 89 87 84 82 83 86 90 92 94 95 97 99 99 99 100 100 97 99 97 89 86 86 92
83 85 69 63 59 66 77 85 75 61 70 96 96 97 100 99 100 99 100 96 97 96 90 87 85 90 91 90 92 96 97 98 99 100 100 100 100 100 100 100 95 90 96 96
81 99 98 87 79 76 83 67 62 75 73 91 93 98 100 100 100 100 99 100 98 96 85 83 84 90 95 96 95 94 98 98 99 100 100 100 100 100 99 100 98 99 99 96
76 97 93 77 80 67 80 75 86 87 95 98 97 99 100 100 99 100 98 99 100 88 83 82 82 89 95 97 97 96 97 99 98 99 100 100 100 100 100 100 100 100 100 99
83 100 99 96 99 99 100 72 82 79 93 96 97 97 95 94 93 92 96 97 96 84 82 84 85 88 96 96 98 97 97 98 99 98 99 100 100 100 100 100 99 99 100 100
87 98 97 96 99 89 98 90 99 92 96 94 97 94 96 94 94 94 93 97 88 84 84 86 88 88 93 95 98 98 97 98 98 99 99 100 100 100 100 100 100 100 100 100
70 98 100 98 80 78 95 97 98 94 86 92 78 92 94 93 92 91 94 96 91 84 85 86 85 88 92 96 95 96 97 98 97 97 99 100 100 100 100 99 99 100 100 100
77 79 93 97 87 84 83 98 96 93 95 90 84 92 93 92 90 94 95 95 90 84 84 91 93 94 97 98 98 96 97 97 98 99 99 100 100 100 100 100 99 97 98 100
83 81 77 97 89 88 98 91 92 91 95 94 88 92 93 90 95 95 94 93 94 86 88 90 94 96 99 98 98 98 93 98 99 100 100 100 100 100 100 100 100 100 99 99
67 81 97 95 89 96 87 85 92 89 99 97 96 95 93 95 92 91 86 84 94 86 84 86 88 95 97 99 98 98 97 93 100 100 100 100 100 99 100 100 100 100 100 99
66 69 88 93 82 93 94 86 88 76 92 94 87 90 85 93 93 95 83 86 84 78 78 82 85 92 95 99 96 97 96 99 96 100 100 100 99 100 100 98 98 100 100 100
85 87 92 89 92 89 88 95 97 90 95 99 86 82 84 90 96 91 87 86 81 77 77 80 84 91 95 95 94 98 98 99 92 93 93 93 95 99 100 99 98 97 97 98
89 92 92 85 81 89 92 75 84 97 95 99 95 84 88 87 81 81 87 85 80 84 80 80 83 90 96 98 99 99 99 100 100 77 81 90 98 100 99 97 97 98 96 95
92 86 89 93 93 95 96 96 97 83 78 74 84 80 76 81 82 82 82 77 78 82 83 83 85 89 94 98 100 100 100 100 99 99 84 82 89 100 100 100 100 100 98 100
84 75 93 92 98 94 93 79 70 71 76 73 72 69 67 74 72 76 77 78 80 84 86 86 86 90 94 98 98 100 100 100 100 100 100 89 89 95 100 100 100 100 100 100
90 83 93 95 94 93 91 76 74 68 63 64 65 70 71 72 77 81 82 80 83 83 86 86 87 89 95 98 99 97 98 100 98 100 100 100 90 84 92 96 100 100 99 99
82 96 98 97 89 90 94 75 68 71 73 69 68 70 69 70 75 77 82 86 86 86 85 86 86 90 95 95 98 98 96 100 100 98 100 100 100 97 85 88 90 97 100 100

GFSCGP_925_rhum_120.txt.gz
RH
31 40 46 38 38 34 39 45 49 39 34 39 43 38 30 25 23 21 31 36 34 27 20 28 36 35 24 22 52 77 91 87 96 100 100 100 100 90 74 76 66 64 69 75
62 59 41 39 39 38 39 42 43 35 33 36 42 47 33 26 22 19 21 19 27 33 38 68 76 77 77 76 69 40 72 90 99 100 100 95 100 100 99 94 86 80 69 77
66 44 46 49 54 56 51 52 47 40 31 31 46 57 40 26 22 16 14 37 67 72 81 74 76 82 82 82 83 83 64 83 90 97 100 98 99 99 100 100 98 81 76 79
67 55 56 67 75 63 73 44 44 46 48 74 57 85 50 31 29 83 82 83 83 82 78 76 76 78 86 87 86 89 94 88 92 99 99 93 94 94 98 99 100 85 81 78
64 58 62 62 53 56 59 51 52 55 56 58 66 84 43 41 87 87 82 87 85 84 86 86 82 81 83 87 89 89 91 94 100 100 97 95 97 94 91 94 95 99 100 100
58 46 52 56 49 51 50 58 59 61 68 84 59 59 63 98 99 94 91 88 86 82 80 80 80 83 84 88 91 89 89 92 93 94 100 100 99 96 95 95 97 100 99 100
72 62 58 53 66 59 59 69 86 87 94 80 46 50 96 100 98 98 96 94 89 82 82 83 83 81 85 87 90 90 92 93 96 94 93 97 100 100 94 92 99 100 100 99
98 82 45 50 64 62 61 67 77 74 74 89 62 83 100 100 98 97 97 94 88 89 85 86 84 83 86 89 92 93 93 94 97 96 96 97 96 96 100 98 97 99 97 74
92 87 48 52 48 49 46 69 44 59 64 75 85 99 82 82 92 100 100 97 99 94 90 91 87 86 87 89 93 96 95 95 97 99 99 99 98 99 99 98 98 92 85 56
88 96 61 58 60 59 52 58 81 81 92 83 94 95 94 92 97 97 97 99 100 99 94 89 86 90 91 91 92 95 98 98 99 99 100 100 100 99 99 99 99 98 86 71
93 100 73 66 77 68 82 82 82 75 75 96 95 96 100 98 100 98 98 99 99 98 100 97 88 90 92 91 92 95 97 99 99 99 100 99 99 99 99 100 96 100 100 94
70 99 98 71 58 70 86 72 71 86 68 92 94 98 100 100 99 98 98 99 98 100 98 100 94 88 90 92 92 93 96 97 99 99 100 100 100 100 100 100 100 97 97 100
89 99 97 75 74 73 84 76 82 79 84 96 95 99 99 96 96 97 98 98 98 99 99 98 89 87 89 90 91 93 96 97 97 99 100 100 100 100 100 100 100 100 96 98
90 99 94 96 96 99 97 84 78 74 93 97 96 96 96 94 94 95 96 96 97 97 95 89 91 90 92 91 91 92 95 97 97 97 99 100 100 100 100 100 100 100 100 100
90 99 100 96 96 95 98 99 85 90 96 92 97 94 96 96 96 96 97 95 84 82 91 91 88 88 92 96 91 92 95 97 98 97 98 99 100 100 100 100 100 100 100 100
76 99 100 96 100 91 94 95 96 93 93 94 91 93 96 95 95 93 95 92 86 84 85 84 85 86 92 96 98 91 95 100 100 99 99 100 99 99 100 100 100 100 98 97
90 96 96 93 85 60 79 97 96 91 89 85 84 94 95 94 92 95 94 94 90 86 85 91 93 94 97 98 99 98 92 98 100 100 100 100 100 100 100 100 100 100 100 100
88 100 89 96 95 88 96 98 96 89 94 89 89 94 94 94 95 95 95 95 92 87 86 90 95 96 98 99 99 96 91 92 100 100 100 100 100 100 100 100 100 100 100 100
74 100 98 91 88 95 91 86 92 92 95 92 92 91 91 95 89 92 88 90 92 88 85 90 96 98 99 100 99 96 98 89 94 100 100 100 100 100 100 100 100 100 100 100
68 95 98 89 82 93 91 79 76 88 92 87 87 89 89 88 92 97 93 91 90 83 81 85 91 95 99 100 100 96 99 98 95 97 100 100 100 100 100 100 100 100 100 100
81 85 94 90 87 89 86 91 84 92 98 88 84 88 86 93 98 95 89 90 88 86 82 84 88 94 99 100 100 99 98 100 100 92 92 100 100 100 100 100 100 99 99 99
89 93 93 92 80 91 91 83 86 96 97 88 92 92 88 89 86 87 91 89 84 87 84 85 88 91 96 100 100 99 100 100 100 100 90 95 100 100 100 100 100 100 100 100
92 84 87 92 92 96 88 95 81 78 86 93 91 82 81 84 86 87 89 83 85 86 89 86 87 90 95 98 100 100 100 99 98 97 100 89 91 97 100 100 99 98 100 100
89 74 89 90 96 91 84 77 71 76 85 88 76 76 75 77 78 84 81 82 83 86 84 87 88 92 96 99 100 100 100 98 94 96 99 100 92 89 95 100 100 100 97 97
91 84 93 95 95 91 81 77 73 72 70 71 72 74 78 78 84 85 85 84 84 80 85 84 88 91 96 95 98 99 100 100 93 94 99 100 100 88 84 94 100 100 99 100
82 89 93 95 86 87 88 79 72 73 75 71 74 76 74 76 80 84 87 86 83 77 80 87 86 88 90 91 97 98 100 100 100 98 100 100 100 94 91 85 80 93 100 100

GFSCGP_925_rhum_123.txt.gz
RH
33 30 29 29 32 26 30 34 35 29 25 29 31 30 28 24 25 25 26 24 20 16 18 32 60 66 43 46 68 77 90 92 92 91 93 91 93 96 97 95 92 80 90 95
46 43 31 33 34 37 39 44 43 34 29 31 31 33 27 24 25 29 28 24 20 19 19 44 68 75 79 81 79 69 90 96 99 90 88 84 87 91 96 96 96 91 84 69
45 34 36 40 40 44 40 52 50 48 35 32 38 34 33 30 29 55 68 68 71 73 72 69 68 75 80 84 88 83 66 97 99 96 96 98 98 98 99 99 100 99 98 86
54 47 50 51 53 47 53 45 45 46 49 56 38 50 38 44 50 71 77 78 80 82 76 73 72 74 80 86 90 89 91 75 95 97 95 97 94 91 95 98 100 98 100 98
50 55 59 61 51 52 55 44 46 50 54 56 38 57 40 58 71 96 94 84 82 80 82 81 78 80 83 86 89 89 90 97 100 100 99 96 92 89 88 95 98 100 100 99
54 45 48 48 46 43 42 52 52 57 62 73 52 70 62 92 100 97 97 96 93 86 85 83 81 82 84 88 88 89 90 93 98 100 100 100 99 92 99 98 99 99 100 99
64 58 53 48 57 55 54 63 57 61 84 58 42 55 97 98 100 100 100 100 99 94 92 92 87 84 86 90 92 89 92 94 97 98 98 99 99 100 100 98 100 100 100 100
78 64 46 48 47 40 62 54 48 54 47 44 36 88 98 100 99 100 100 100 100 100 94 94 91 89 89 91 94 96 94 95 97 99 100 97 97 100 100 100 100 100 98 100
85 79 52 45 46 47 51 57 40 52 47 63 73 98 100 83 94 99 98 98 98 100 98 94 89 89 90 92 95 97 97 96 98 99 100 99 100 99 99 99 96 100 99 100
86 96 59 54 54 53 54 46 71 63 82 89 86 93 91 85 94 96 96 97 97 98 96 96 89 86 88 90 94 95 96 97 99 99 98 100 99 99 99 99 99 99 99 99
80 98 66 63 67 64 75 72 64 63 75 86 82 93 97 95 96 96 97 98 98 98 98 97 97 95 86 88 91 95 96 96 98 100 100 100 100 100 100 100 100 100 99 100
71 100 93 77 54 56 68 71 64 79 68 78 89 94 99 98 97 95 96 97 97 98 98 99 98 98 98 89 89 93 96 97 97 98 100 100 100 100 100 100 100 100 100 99
89 90 82 56 61 52 79 79 93 71 76 93 93 93 95 94 94 96 94 94 95 95 96 97 95 97 99 97 91 94 97 97 95 97 98 99 100 100 100 100 100 100 100 100
89 87 78 89 94 93 92 83 72 84 83 90 93 92 92 91 92 93 94 93 93 94 91 87 94 95 97 99 89 91 97 98 95 94 97 99 99 100 100 100 100 100 100 100
88 99 100 95 95 88 94 93 88 87 96 92 93 90 94 93 93 93 94 93 74 74 80 79 81 88 94 96 87 84 94 98 97 96 97 99 99 100 100 100 100 100 100 100
79 92 100 96 97 90 94 95 96 84 82 91 91 92 94 93 92 91 92 90 85 78 79 79 79 83 91 95 93 82 86 95 96 95 98 99 99 100 100 100 100 100 100 100
87 99 89 90 91 82 78 96 94 85 84 86 86 92 93 91 90 92 91 92 87 83 83 86 88 91 96 97 98 89 84 88 94 98 98 100 99 100 100 100 100 100 100 100
81 91 93 86 96 89 96 98 92 90 92 83 83 88 89 90 92 92 88 86 86 82 83 86 92 95 99 98 96 96 93 88 91 100 100 100 100 100 100 100 100 100 100 100
76 89 93 88 83 91 94 87 91 92 92 86 90 89 84 90 82 84 84 83 87 83 82 87 92 99 100 100 92 93 96 95 94 100 100 100 100 100 100 100 100 100 100 100
75 81 98 79 78 86 89 79 76 80 87 82 74 83 84 84 82 89 84 83 87 82 79 81 84 87 96 99 94 94 97 98 98 99 100 100 100 100 100 100 100 100 100 100
70 76 92 85 83 84 82 85 80 92 91 79 75 74 73 84 87 88 81 85 89 81 78 79 80 85 90 91 92 95 95 97 98 98 97 100 100 100 100 100 100 100 100 100
77 82 86 92 88 90 81 93 83 93 90 80 77 72 79 81 80 78 84 79 76 81 77 78 79 83 89 90 87 93 95 91 93 98 96 97 100 100 100 100 98 99 99 97
80 73 78 84 87 90 89 88 76 75 80 83 73 70 70 76 80 79 76 70 73 72 75 77 78 79 85 89 93 94 96 86 85 89 95 92 91 98 100 100 99 96 94 94
84 72 79 84 90 86 79 70 71 78 86 75 67 65 64 70 71 73 69 68 66 72 72 76 76 76 80 87 92 98 96 87 79 83 87 85 85 83 88 94 98 96 95 93
82 75 82 90 91 81 76 68 71 73 67 67 67 67 69 70 72 71 70 66 62 66 70 69 70 74 79 85 91 98 99 84 77 79 84 91 85 82 79 87 100 100 100 100
76 82 84 85 85 76 79 67 65 67 70 66 65 67 68 66 69 70 68 64 59 62 68 67 63 64 74 85 90 98 100 90 85 79 85 94 90 86 82 84 83 94 100 100

GFSCGP_925_rhum_129.txt.gz
RH
16 18 14 13 15 15 14 14 13 10 9 13 15 14 11 10 12 27 28 32 33 34 36 40 41 40 36 37 44 46 44 47 41 59 70 68 61 61 68 62 60 60 70 93
21 21 15 17 18 20 18 18 17 13 11 14 14 14 11 10 28 30 32 34 37 41 46 48 52 54 51 48 46 51 50 47 48 49 61 64 58 60 63 64 63 68 70 83
21 17 21 23 20 20 18 19 20 19 16 15 15 13 10 11 26 29 32 35 38 44 53 59 62 67 68 66 66 65 61 56 49 55 58 59 55 54 57 58 58 69 71 80
22 19 24 23 21 21 26 21 23 22 22 20 14 22 20 27 31 38 42 43 50 55 55 63 78 76 79 80 85 86 81 78 72 87 92 62 58 50 50 53 54 56 66 69
27 25 26 26 23 24 26 26 27 26 26 24 15 16 33 37 52 55 56 54 59 62 62 66 83 89 87 90 96 96 92 86 88 94 100 86 64 50 49 53 55 62 65 69
26 22 25 22 23 26 25 30 28 27 26 32 17 22 40 79 87 74 67 61 65 68 73 64 76 94 91 92 96 99 96 93 94 97 99 99 83 73 74 77 70 79 88 81
28 28 23 25 29 27 32 36 44 35 36 32 13 19 76 71 72 72 81 72 68 67 80 78 76 96 96 96 96 99 97 96 99 100 99 100 100 98 93 86 94 91 94 95
30 42 27 25 27 31 32 35 41 38 27 26 21 38 90 57 63 63 79 69 72 75 81 88 82 96 97 99 98 99 99 99 100 98 100 100 100 100 100 95 94 99 100 100
42 33 23 24 25 30 43 43 30 39 36 44 44 87 61 48 62 94 81 74 93 97 95 93 91 97 99 99 100 100 100 100 99 100 100 100 99 99 99 99 100 99 99 98
44 61 33 28 31 30 35 35 55 46 59 55 35 77 76 75 83 81 97 97 88 95 96 94 96 97 99 99 100 100 100 98 100 100 100 100 99 99 100 99 100 100 100 99
46 55 43 36 38 40 49 53 53 40 43 60 58 84 78 91 86 92 94 97 99 98 99 98 98 98 99 99 100 99 100 99 98 98 99 100 99 99 99 100 100 100 99 100
46 82 78 43 30 33 38 46 57 58 52 55 69 91 76 89 79 76 82 86 94 100 99 98 98 98 98 99 99 99 99 97 98 100 99 100 99 99 100 100 100 98 100 100
52 79 61 53 50 32 39 42 49 61 93 81 90 92 70 66 72 73 82 85 92 92 95 98 96 96 97 98 99 99 100 98 98 92 91 95 97 99 99 100 100 100 100 100
62 49 62 61 74 49 59 53 52 54 86 99 94 94 84 73 74 73 80 82 91 96 88 80 87 95 97 98 99 99 100 100 99 100 92 92 93 94 98 100 99 100 100 100
64 75 78 54 56 58 82 78 82 83 86 92 90 84 88 82 81 80 79 83 83 77 77 70 71 72 80 90 93 96 95 96 97 95 97 91 89 93 93 95 99 96 97 99
60 94 94 98 74 61 88 91 93 73 73 75 69 88 71 72 69 78 84 83 79 67 66 71 74 78 79 81 87 86 88 88 92 91 88 87 87 87 90 91 93 96 96 100
63 71 70 79 85 68 77 92 86 69 60 60 70 76 72 74 75 82 78 75 73 70 68 77 82 84 80 79 80 83 80 84 88 90 89 86 88 87 91 92 93 94 96 96
48 52 56 83 71 85 97 62 59 70 69 63 74 76 67 71 72 69 71 77 76 67 66 68 81 83 76 72 74 77 81 83 86 91 93 90 86 87 89 95 94 95 97 97
42 47 58 67 68 84 84 70 68 74 79 63 70 75 70 68 64 73 67 74 79 63 57 57 61 81 70 67 64 70 76 82 86 93 93 95 95 93 93 94 96 93 95 96
42 47 65 56 62 75 65 51 47 48 78 53 60 69 69 66 88 86 72 77 76 56 48 47 45 46 57 61 62 60 69 78 84 91 89 89 94 95 96 97 96 96 92 93
58 48 62 61 60 70 50 56 58 84 90 55 52 58 63 73 83 82 75 79 78 50 44 42 41 43 44 46 51 56 53 63 68 68 76 81 83 90 91 91 91 91 92 89
43 50 64 56 61 81 53 66 79 76 56 50 50 54 65 67 64 65 72 67 54 43 36 35 37 40 42 42 44 45 46 42 48 56 58 60 67 72 84 89 87 86 86 84
54 45 63 67 84 75 64 73 56 51 53 50 50 50 54 58 61 60 53 41 35 32 31 31 33 37 40 41 42 44 44 39 40 45 49 49 52 53 62 68 79 80 81 81
51 44 58 71 77 69 66 64 56 51 52 48 46 48 48 50 46 44 36 33 28 27 27 28 29 33 37 40 44 46 44 41 37 40 45 47 48 46 49 61 63 76 82 80
45 47 63 80 70 63 61 72 68 57 50 48 46 45 45 45 41 34 32 29 28 28 28 28 29 31 35 39 43 48 46 44 41 41 46 54 52 51 49 57 78 74 93 91
43 61 72 77 68 62 63 61 58 57 52 47 47 46 42 41 36 31 29 29 28 30 27 25 26 30 34 39 45 51 54 51 53 50 51 57 56 56 56 56 56 79 86 95

GFSCGP_925_rhum_132.txt.gz
RH
17 18 16 12 14 14 13 11 11 9 8 11 12 12 10 9 19 28 29 32 33 34 34 38 45 52 57 60 66 68 65 63 62 61 55 58 69 70 68 65 62 68 85 79
17 21 14 14 14 15 15 15 15 12 10 12 13 13 11 21 29 32 36 38 39 42 42 42 49 58 67 70 73 78 75 74 73 72 68 76 67 70 72 67 61 63 82 87
19 15 17 18 16 17 16 18 17 18 15 14 15 14 9 28 32 35 39 40 44 50 50 50 54 59 68 74 82 85 84 86 87 83 78 88 94 86 71 68 65 65 66 86
17 14 16 19 18 16 20 17 22 22 23 26 14 23 13 26 39 44 48 48 54 54 53 54 56 62 73 77 88 91 93 94 91 88 86 91 99 97 73 68 70 65 64 76
22 17 24 22 17 18 22 22 25 27 27 27 23 20 33 34 58 60 56 56 57 57 58 60 64 67 72 81 93 98 97 97 93 95 95 98 100 99 86 66 66 64 70 72
20 17 20 18 17 21 21 27 28 29 29 40 21 17 55 79 80 70 64 62 64 63 65 62 70 76 80 93 98 100 99 96 94 94 99 100 98 100 88 79 74 64 74 76
25 21 19 18 23 22 28 36 47 45 48 39 13 18 73 68 63 68 77 67 70 69 77 74 77 83 86 93 98 100 100 97 96 94 100 100 97 99 100 96 96 99 92 84
32 37 22 20 24 24 32 30 42 48 33 34 23 46 93 70 67 64 72 68 72 75 79 83 78 84 94 99 98 100 100 100 100 95 100 100 99 100 100 99 100 95 99 97
47 29 20 20 20 23 32 37 29 42 39 48 45 76 52 54 65 89 76 76 79 83 84 87 82 90 98 99 100 100 100 100 99 100 99 100 100 100 100 100 100 100 94 98
42 60 26 22 21 23 29 29 50 44 58 53 34 86 92 75 82 84 92 91 80 87 89 88 89 97 98 100 100 100 100 100 100 100 99 100 100 100 100 100 99 100 100 99
39 50 39 28 36 35 39 41 38 42 51 66 62 84 72 88 87 91 91 90 86 94 94 93 91 97 99 99 99 99 100 100 100 100 100 100 100 100 100 100 99 100 99 99
40 79 84 41 27 26 35 43 48 82 57 49 78 91 77 94 80 73 84 77 77 82 96 95 96 94 98 99 100 100 100 100 99 100 98 98 98 99 100 100 98 100 98 97
46 81 61 50 41 32 36 43 40 56 84 81 90 90 68 65 71 74 83 78 82 77 88 92 93 95 97 98 99 99 99 99 100 100 100 99 97 97 98 99 100 100 100 100
55 54 61 95 76 49 50 46 47 50 76 78 89 93 94 72 73 76 80 77 77 88 90 83 86 89 95 98 99 99 99 99 100 100 100 100 100 99 98 98 98 99 100 100
53 76 77 53 50 58 78 65 71 76 87 91 90 81 79 80 80 80 74 72 66 62 65 68 72 78 84 91 94 96 94 98 99 99 100 100 100 100 95 96 96 97 98 98
56 72 94 100 64 59 85 91 98 62 68 73 72 87 74 70 67 77 74 70 69 65 64 68 71 75 76 78 88 91 96 96 96 95 96 92 95 96 94 93 95 96 96 96
63 66 72 76 83 65 90 88 81 62 56 58 70 77 70 70 73 78 75 73 69 65 64 75 75 81 71 67 75 82 86 90 92 94 91 90 89 91 93 93 93 96 96 97
62 58 59 69 78 90 94 58 54 60 62 60 69 68 62 69 69 68 70 73 73 61 59 67 81 77 65 63 64 71 76 85 85 88 88 89 90 90 91 94 92 92 92 92
41 55 68 65 75 82 78 57 60 62 70 57 66 64 65 63 65 74 68 71 76 56 49 48 59 57 58 59 56 62 71 75 86 81 86 90 88 91 93 94 97 92 93 94
40 41 63 63 70 76 66 48 42 44 72 54 59 66 68 63 85 92 72 72 72 46 40 38 38 39 42 48 50 49 60 65 67 74 74 81 87 87 93 93 93 95 91 92
58 56 69 64 56 78 48 45 45 76 83 50 53 59 61 70 86 82 76 76 74 58 35 35 36 37 37 39 44 45 44 51 54 57 56 64 71 84 86 88 87 90 89 88
51 60 63 54 57 90 48 56 73 70 52 49 51 53 60 77 72 69 75 80 58 33 28 29 33 36 37 38 38 41 40 37 43 49 52 50 56 68 73 79 79 83 85 86
52 45 71 77 84 68 67 74 54 47 50 50 54 59 62 64 64 62 62 35 28 26 26 26 30 34 36 39 41 41 40 36 38 45 50 51 50 52 64 70 80 84 84 85
48 40 67 71 72 67 71 56 49 45 48 46 47 50 52 57 53 46 36 28 23 22 23 25 28 30 35 37 42 44 44 43 39 42 50 52 54 52 55 67 75 85 91 89
47 43 66 79 68 65 63 64 56 51 46 46 45 46 46 44 40 33 28 24 23 23 24 24 28 29 32 37 43 49 49 48 49 48 55 62 61 59 58 65 75 85 93 95
40 60 74 74 68 63 70 67 61 61 53 45 45 45 42 37 32 28 27 26 25 25 22 23 27 30 33 39 48 54 58 57 63 59 61 66 67 67 68 68 68 74 80 89

GFSCGP_925_rhum_138.txt.gz
RH
24 33 37 30 30 24 22 18 18 14 12 14 16 41 56 52 55 63 65 65 64 63 60 61 63 67 70 72 72 75 81 87 94 93 95 94 95 95 84 73 66 41 41 86
28 38 27 25 25 25 22 21 23 19 17 18 22 59 59 56 61 65 68 71 71 70 67 65 68 71 75 75 75 79 91 93 94 93 94 93 92 95 98 91 76 59 45 60
34 28 22 24 26 24 23 25 24 23 24 22 22 57 61 59 60 62 66 69 71 76 77 74 73 75 77 78 81 85 91 94 98 96 94 93 95 96 97 89 81 70 73 40
27 22 24 25 26 24 30 19 27 30 33 35 28 50 68 68 71 72 70 77 75 70 75 77 77 78 82 85 86 90 96 96 97 99 100 100 99 96 96 99 90 87 83 69
30 28 27 28 24 22 25 26 29 30 36 42 38 44 70 64 76 78 75 76 77 67 75 80 80 81 86 90 87 93 99 98 96 99 100 100 100 99 100 98 85 87 75 84
27 22 25 26 22 22 28 31 35 37 45 68 44 43 70 90 87 82 76 73 71 72 69 72 81 84 86 89 93 96 99 100 99 100 99 100 100 100 100 98 99 99 97 96
31 31 25 24 28 26 31 46 72 74 84 69 38 51 85 86 83 82 81 78 74 76 78 83 88 89 86 88 95 98 100 99 100 100 100 100 100 100 100 100 100 100 100 98
51 58 35 28 28 32 38 45 72 74 75 65 47 72 96 80 75 68 73 73 76 90 90 90 90 93 89 91 97 99 100 100 100 100 100 100 100 100 100 100 100 100 99 100
65 60 35 32 25 25 38 51 37 56 56 71 78 93 86 79 82 84 78 74 90 96 94 93 92 93 95 97 99 100 99 100 100 100 100 100 100 100 100 99 99 99 100 100
46 72 40 37 24 24 34 37 64 70 73 78 86 92 92 91 91 87 92 94 90 93 95 93 93 94 97 100 100 100 100 100 100 100 100 100 100 100 100 98 99 98 100 100
48 65 56 44 39 38 42 49 48 55 76 90 94 89 84 90 93 95 93 92 97 94 97 96 95 96 95 94 99 100 100 99 100 100 100 100 100 100 98 100 99 100 100 100
54 76 82 55 38 40 44 49 51 77 67 82 88 90 82 93 91 90 84 87 87 92 96 94 91 91 89 91 96 99 99 99 100 99 100 100 99 98 97 99 100 100 100 100
59 82 87 64 52 42 60 55 63 87 96 93 96 88 90 85 89 83 87 85 87 91 90 87 84 87 86 90 94 96 99 100 100 100 99 98 98 98 98 99 100 100 100 100
57 76 69 85 77 75 66 63 59 68 97 94 90 99 98 92 91 86 85 80 92 90 84 85 88 84 76 80 89 92 95 98 99 100 100 99 99 98 100 98 100 100 99 100
67 80 82 78 79 88 97 76 73 72 80 87 80 92 89 89 84 84 83 84 75 79 72 77 83 84 75 75 81 84 85 94 91 92 99 100 100 100 100 99 95 95 100 100
69 85 94 96 84 74 89 90 93 85 78 94 85 91 86 85 84 84 84 76 79 77 66 71 78 78 76 72 76 82 79 87 83 86 96 98 99 98 98 99 97 94 93 99
78 84 87 82 84 78 90 82 87 79 74 80 96 79 86 89 85 92 88 82 80 76 68 72 78 73 64 67 67 76 76 83 84 78 78 88 96 97 95 97 97 96 91 95
81 77 78 92 90 95 73 74 72 70 73 76 83 88 84 84 89 85 79 82 76 73 76 61 60 59 51 58 59 66 68 76 90 85 79 71 74 86 90 89 97 99 96 92
59 76 90 95 93 79 81 70 75 74 75 76 85 83 87 84 81 87 76 80 84 74 68 55 58 57 44 51 58 57 60 72 84 93 85 80 72 75 82 86 86 90 90 96
76 80 89 94 94 93 73 60 53 54 88 73 75 86 88 84 92 91 81 78 78 72 53 46 41 45 42 44 55 54 58 59 72 86 90 77 71 70 76 83 84 86 83 83
100 99 96 93 95 85 59 54 53 84 75 70 73 78 82 87 94 88 80 81 72 55 42 40 42 44 44 43 46 57 57 61 60 72 72 84 82 72 76 80 83 86 88 83
81 82 92 89 88 91 62 55 74 71 71 69 70 71 75 92 88 83 80 82 71 62 44 40 44 46 46 46 50 55 56 62 61 64 72 78 86 86 75 80 85 86 89 87
81 68 84 81 85 81 71 67 63 62 77 76 71 66 81 86 79 74 74 68 47 40 41 41 44 48 51 51 54 61 60 64 70 71 72 76 80 84 85 81 86 89 88 90
65 66 90 81 80 80 69 61 62 67 79 77 75 76 73 70 66 62 63 61 33 37 40 41 43 50 56 57 58 67 64 64 69 79 78 71 78 77 84 85 89 85 88 91
69 72 87 91 78 76 69 66 72 73 70 70 68 68 68 60 59 57 50 30 31 34 38 38 44 52 58 58 63 65 71 54 74 83 89 72 76 78 76 87 96 96 98 95
64 82 85 83 78 76 79 73 66 70 69 64 63 63 55 50 51 36 31 30 30 34 36 41 47 54 56 53 64 69 79 71 58 77 84 84 78 77 76 77 74 75 85 88

GFSCGP_925_rhum_141.txt.gz
RH
25 34 36 29 31 22 23 21 21 17 13 15 19 64 62 63 67 75 76 77 76 74 68 70 72 74 75 79 83 87 87 90 95 97 98 96 89 87 90 98 97 86 68 66
27 40 28 28 28 31 30 31 26 20 18 19 41 67 69 64 72 75 78 80 79 75 72 72 73 75 79 85 89 85 85 91 94 93 96 96 98 94 90 94 99 94 83 86
31 25 25 28 30 34 32 28 24 22 22 23 43 59 73 66 69 68 73 73 75 76 80 76 74 78 83 89 91 87 88 93 94 93 93 94 96 97 93 88 91 96 92 90
31 24 25 26 31 31 37 24 23 26 34 40 27 41 73 74 79 76 78 86 85 79 74 72 76 81 88 85 88 93 93 95 99 100 99 100 100 99 96 94 95 97 90 83
31 28 28 32 30 25 29 26 33 34 40 42 41 42 66 74 83 85 82 79 79 83 77 79 82 87 83 84 88 93 95 97 99 100 100 100 100 100 99 98 97 94 100 99
29 22 25 28 25 25 27 33 38 47 47 62 45 37 47 91 82 88 79 76 77 86 84 83 84 90 86 87 90 96 98 99 100 100 100 100 100 100 100 93 99 98 96 98
28 27 22 24 30 27 33 39 69 67 83 52 44 45 52 91 85 85 88 86 79 93 90 90 90 93 93 89 92 96 100 100 100 100 100 100 100 100 100 100 100 100 100 99
53 52 39 31 32 33 40 38 57 66 70 70 47 64 81 83 79 80 82 77 80 93 93 93 92 96 94 93 98 97 100 100 100 100 100 100 100 100 100 100 100 100 100 99
61 55 37 33 32 27 42 48 36 50 57 78 68 82 87 80 83 86 83 82 93 95 94 93 92 95 93 95 98 100 100 100 100 100 100 100 100 100 100 100 100 100 100 100
43 59 39 42 28 28 34 38 63 77 76 81 87 90 82 96 94 95 97 94 90 93 93 92 91 94 91 92 97 100 100 100 100 100 100 99 100 100 100 100 100 100 98 100
44 66 54 46 46 40 44 50 55 60 73 83 95 87 84 86 89 95 98 94 96 96 97 94 88 86 85 89 95 99 99 100 100 99 99 99 100 100 99 100 100 100 98 100
52 72 84 54 36 38 53 56 72 98 72 79 88 87 85 92 89 91 95 90 92 93 96 90 84 84 81 86 92 95 99 100 98 98 98 99 100 99 99 99 99 96 98 99
66 81 76 70 56 46 69 69 66 72 83 86 93 84 89 88 94 89 94 88 86 92 90 88 85 84 80 82 92 89 96 94 96 100 100 100 100 99 98 98 95 99 96 100
62 72 74 80 75 75 74 66 80 91 97 92 92 95 100 94 93 92 91 87 91 90 87 88 89 82 76 78 86 86 92 85 89 98 99 96 100 97 99 97 95 96 96 100
66 79 81 77 78 80 92 89 78 86 82 89 80 87 90 90 88 91 86 85 85 73 73 76 82 82 76 75 81 82 86 81 77 84 94 98 96 100 100 97 95 98 99 100
80 98 99 98 91 98 100 99 96 84 77 87 88 91 85 90 88 91 87 82 84 69 66 72 76 72 74 73 76 82 85 82 77 71 74 86 89 94 97 98 96 97 94 95
96 100 99 89 88 93 98 88 85 80 76 78 90 75 95 97 90 91 88 84 82 74 64 74 80 73 67 68 68 78 82 87 80 78 73 75 85 80 86 90 90 93 92 93
90 96 84 91 89 96 72 74 70 71 71 77 80 93 86 86 91 90 84 81 78 73 64 65 65 58 60 60 61 71 78 88 86 81 74 75 79 82 78 81 84 87 92 95
62 86 91 87 92 76 76 72 79 80 74 76 82 89 94 91 86 90 81 80 82 76 61 61 60 51 59 56 60 61 77 85 96 88 82 78 80 85 85 85 85 83 88 96
66 68 89 96 90 93 69 61 57 51 84 78 81 90 92 82 97 94 84 82 82 68 60 49 50 46 53 56 56 60 71 78 86 98 80 72 70 72 79 87 83 81 79 86
93 100 98 91 95 80 64 59 51 74 72 77 77 82 83 83 87 88 82 83 74 62 45 45 44 46 50 54 56 65 67 76 79 78 85 86 83 78 77 81 84 81 75 65
89 95 97 98 96 86 60 61 69 70 74 75 76 77 78 92 91 82 80 85 66 48 48 45 48 50 51 52 53 64 72 70 71 75 82 86 86 92 83 81 81 81 86 85
82 71 80 76 82 81 74 69 64 67 78 77 76 74 82 89 80 75 79 70 56 44 46 47 50 54 54 57 56 63 70 70 69 76 81 84 88 92 94 90 86 83 88 91
70 65 88 78 80 80 70 66 65 68 76 77 71 73 78 79 74 67 64 56 46 42 46 48 51 57 62 61 66 64 69 73 76 79 80 79 83 81 86 85 91 91 88 95
72 68 85 87 80 77 74 68 76 82 80 80 77 76 73 67 59 56 57 40 40 42 45 46 50 58 64 61 69 67 61 75 83 86 84 78 70 71 79 88 92 93 99 97
70 81 84 80 72 70 73 80 78 79 80 77 75 72 59 53 51 54 40 36 39 42 45 49 52 55 58 63 70 75 61 60 76 83 82 80 78 72 71 76 75 86 87 89